Location: Helenówka
(50.5935°N, 19.3634°E)
Time: 07:20:10
(UTC+00:00)

Daily predictions for brighter satellites

Satellite Brightness Start Highest point End
(mag) Time Altitude Azimuth Time Altitude Azimuth Time Altitude Azimuth
USA 229 DEB 4.5 18:58:15 10° NW 19:05:19 54° NE 19:13:02 10° ESE
USA 229 4.5 18:58:21 10° NW 19:05:25 54° NE 19:13:08 10° ESE
Cosmos 2034 Rocket 4.1 19:04:19 10° N 19:10:32 69° ENE 19:16:45 10° SSE
Cosmos 972 Rocket 4.1 19:06:40 10° SSW 19:11:35 80° WNW 19:16:48 10° NNE
Cosmos 1766 Rocket 4.4 19:09:46 10° N 19:13:54 37° ENE 19:18:02 10° SE
Okean-O 2.9 19:10:33 10° S 19:14:57 72° WSW 19:19:23 10° NNW
USA 290 2.2 19:13:58 10° NNW 19:17:13 83° ENE 19:20:26 10° SSE
Spot 2 Rocket 4.0 19:14:33 10° SE 19:19:19 45° ENE 19:24:07 10° N
Cosmos-2242 3.4 19:15:17 10° SSW 19:19:28 67° WNW 19:23:42 10° N
Cosmos 1680 Rocket 3.8 19:14:32 10° S 19:19:34 47° ESE 19:24:38 10° NNE
Cosmos 1726 3.9 19:21:59 10° NNE 19:23:48 14° ENE 19:25:36 10° ESE
Tsikada Rocket 4.3 19:18:34 10° SSE 19:24:28 50° E 19:30:28 10° NNE
Kosmos-1783 1.1 19:27:52 10° SW 19:29:17 72° SE 19:30:49 10° NE
SL-16 R/B 2.4 19:27:43 10° S 19:33:11 52° ESE 19:38:42 10° NE
Cosmos 1933 3.6 19:29:25 10° SSW 19:33:20 70° W 19:37:19 10° N
Cosmos 1515 3.9 19:31:17 10° SSW 19:34:44 65° W 19:38:14 10° N
CZ-4C R/B 3.4 19:31:57 10° N 19:35:38 76° WNW 19:39:27 10° SSW
Meteor 2-16 Rocket 4.4 19:29:41 10° S 19:35:46 83° E 19:41:53 10° NNE
MetOp-B 4.4 19:31:55 10° S 19:37:15 71° WSW 19:42:38 10° NNW
Cosmos 2056 Rocket 3.6 19:32:29 10° NNW 19:37:57 87° ENE 19:43:10 11° SSE
Lacrosse 5 2.4 19:34:25 10° WNW 19:39:23 51° SW 19:43:56 12° SSE
MOS 1 Rocket 3.9 19:34:46 11° SE 19:39:29 51° ENE 19:44:35 10° N
Cosmos 1624 Rocket 4.0 19:35:05 10° NNW 19:40:19 89° ENE 19:45:19 11° SSE
Ariane Rocket 3.1 19:36:41 10° SSE 19:41:41 67° ENE 19:46:44 10° N
IRS-1C Rocket 4.4 19:37:48 10° S 19:43:03 70° WSW 19:48:19 10° NNW
USA 276 1.2 19:40:57 10° W 19:43:07 59° S 19:44:46 16° ESE
Cosmos 1536 4.3 19:41:07 10° NNE 19:44:17 23° ENE 19:46:58 12° ESE
Cosmos 44 3.3 19:39:25 10° NW 19:44:20 77° SW 19:48:23 13° SSE
Lacrosse 5 rocket 1.3 19:41:20 10° SW 19:45:37 72° SE 19:49:49 10° ENE
Cosmos 2369 Rocket 2.3 19:40:03 10° NNW 19:45:39 69° ENE 19:50:37 13° SE
Cosmos 1812 Rocket 4.3 19:41:46 10° SSW 19:46:06 56° WNW 19:50:27 10° N
Cosmos 2221 2.5 19:47:03 10° S 19:51:22 76° E 19:55:41 10° NNE
Cosmos 2084 3.1 19:51:08 10° NW 19:54:54 76° SW 19:57:45 17° SE
Resurs 01 Rocket 4.2 19:52:25 10° SW 19:55:09 16° W 19:57:54 10° NW
Cosmos 2237 Rocket 3.7 19:54:56 10° WSW 20:00:18 42° NW 20:05:44 10° NNE
BREEZE-M DEB (TANK) 2.0 19:58:50 10° WSW 20:01:19 40° SSE 20:02:58 14° E
Cosmos 2292 Rocket 4.5 19:54:21 10° S 20:01:27 85° E 20:06:56 10° N
Cosmos 1378 4.0 19:58:52 10° SSW 20:02:01 42° WNW 20:05:10 10° N
ATLAS 3B R/B 3.5 19:55:21 10° NW 20:02:55 54° WSW 20:09:47 13° SSE
BREEZE-M DEB (TANK) 4.2 20:00:53 10° SW 20:04:50 51° SSE 20:16:09 10° E
Cosmos 921 Rocket 3.1 20:01:43 10° S 20:06:07 62° ESE 20:10:33 10° NNE
GEOS 3 Rocket 3.6 20:01:02 10° NE 20:06:12 61° SE 20:11:15 10° SSW
Aureole 3 Rocket 3.4 20:02:44 10° NNW 20:06:13 55° W 20:10:45 10° S
Okean 3 Rocket 3.6 20:03:03 10° N 20:07:29 69° ENE 20:10:46 17° SSE
SPOT 5 4.0 20:03:36 10° SSW 20:07:55 36° W 20:12:04 10° NNW
USA 306 3.3 20:06:42 10° WNW 20:10:25 54° N 20:14:16 10° E
Landsat 4 4.3 20:08:45 12° S 20:11:49 46° W 20:15:13 10° NNW
ARGOS Delta rocket 4.5 20:10:06 10° S 20:15:10 56° W 20:20:00 10° NNW
USA 234 4.0 20:09:42 10° E 20:16:02 53° N 20:22:20 10° WNW
Landsat 5 3.5 20:12:35 10° NNE 20:16:16 48° E 20:18:41 19° S
Cosmos 1943 3.8 20:12:15 14° S 20:16:43 38° ESE 20:21:55 10° NE
Okean O Rocket 4.5 20:15:48 10° WSW 20:17:13 11° W 20:18:38 10° WNW
Terra 2.4 20:13:56 11° S 20:18:21 53° W 20:22:59 10° NNW
Cosmos 1500 Rocket 4.2 20:14:16 10° N 20:18:22 40° ENE 20:20:55 20° SE
Cosmos 1048 Rocket 4.3 20:18:53 15° S 20:22:51 45° ESE 20:27:44 10° NE
Cosmos 1656 Rocket 4.1 20:17:50 10° NW 20:23:08 53° WSW 20:27:23 16° S
ERS-1 Rocket 3.9 20:19:10 10° S 20:23:55 43° W 20:28:44 10° NNW
Meteor 1-10 Rocket 4.4 20:19:57 16° SSE 20:24:30 55° E 20:30:02 10° NNE
Cosmos 1733 4.2 20:21:28 10° N 20:24:36 29° ENE 20:26:10 20° ESE
Cosmos 494 Rocket 3.9 20:21:11 10° S 20:26:13 65° ESE 20:31:18 10° NNE
Cosmos 1805 Rocket 4.2 20:23:07 10° N 20:27:16 41° ENE 20:29:44 21° SE
Cosmos 1842 Rocket 3.5 20:24:38 15° S 20:28:18 79° E 20:32:45 10° NNE
ATLAS 2AS CENTAUR R/B 3.9 20:21:16 10° WSW 20:28:20 49° NNW 20:35:08 10° NE
SPOT 3 Rocket 4.0 20:24:07 14° S 20:28:32 58° W 20:33:37 10° NNW
H-2A R/B 4.2 20:26:30 14° ESE 20:28:59 23° ENE 20:32:17 10° N
Lacrosse 4 Rocket 3.9 20:27:40 10° N 20:30:03 15° NNE 20:32:27 10° ENE
Meteor 1-11 Rocket 3.8 20:26:10 10° N 20:31:47 73° ENE 20:35:44 21° SSE
USA 59 Rocket 1.5 20:28:51 10° NNW 20:31:58 27° NE 20:35:51 10° E
USA 281 3.4 20:27:32 17° SSE 20:32:49 67° WSW 20:39:25 10° NNW
Cosmos 1151 Rocket 4.4 20:31:54 19° ESE 20:33:34 25° E 20:37:06 10° NNE
Meteor 2-10 4.4 20:29:36 10° N 20:35:11 59° ENE 20:38:41 22° SSE
Cosmos 1743 4.1 20:35:21 10° NNW 20:38:33 30° W 20:41:25 12° SSW
Cosmos 1331 Rocket 4.0 20:34:31 10° NNW 20:39:49 81° ENE 20:43:05 23° SSE
ARIANE 5 R/B 3.3 20:38:37 22° SE 20:41:01 42° ENE 20:45:06 10° N
Cosmos 1110 Rocket 4.0 20:36:18 10° NNW 20:41:40 90° ENE 20:45:00 23° SSE
ISS -3.9 20:38:52 10° WNW 20:42:12 75° SSW 20:43:45 29° ESE
Cosmos 1340 Rocket 3.8 20:42:10 25° SE 20:43:31 31° E 20:47:05 10° NNE
Cosmos 2279 Rocket 4.2 20:39:57 10° NNW 20:46:07 70° W 20:50:54 17° S
CZ-2C R/B 4.4 20:43:09 10° NNE 20:47:24 37° E 20:49:14 26° SE
Nadezhda 4 Rocket 4.2 20:46:07 22° SSE 20:50:05 56° E 20:56:10 10° NNE
USA 229 DEB 4.3 20:49:17 10° NW 20:56:30 57° WSW 21:01:46 22° SSE
USA 229 4.3 20:49:22 10° NW 20:56:37 57° SW 21:01:53 22° SSE
Cosmos 1726 2.8 20:54:16 10° NNW 20:57:12 37° W 20:58:35 24° SW
Cosmos 1805 3.7 21:00:48 10° N 21:04:24 44° ENE 21:05:37 32° SE
Cosmos 1743 Rocket 3.5 21:04:24 10° N 21:08:48 86° W 21:10:51 31° S
Sich 1 3.1 21:09:28 10° NNW 21:13:49 71° W 21:15:51 31° S
SL-16 R/B 3.8 21:12:21 10° WSW 21:17:33 35° NW 21:22:45 10° NNE
Cosmos 1603 3.7 21:15:41 21° SSW 21:19:31 72° ESE 21:25:14 10° NNE
NOSS 2-1 (C) 3.9 21:16:12 10° NW 21:19:47 56° NE 21:22:32 22° ESE
Cosmos 1536 4.0 21:16:49 10° NNW 21:20:20 34° W 21:22:15 21° SW
Cosmos 1975 3.1 21:16:48 10° N 21:20:42 54° ENE 21:21:58 36° SE
USA 267 3.9 21:15:12 10° ENE 21:21:02 33° SE 21:23:23 26° SSE
Lacrosse 5 4.1 21:19:55 10° WSW 21:21:20 11° WSW 21:22:45 10° SW
Cosmos 1452 Rocket 4.3 21:19:09 10° NW 21:24:04 42° WSW 21:26:45 24° SSW
Lacrosse 5 rocket 2.7 21:20:10 10° W 21:24:14 41° NNW 21:28:12 10° NE
Meteor 1-27 Rocket 3.7 21:22:18 22° SSW 21:25:57 80° WNW 21:31:31 10° N
Cosmos 1340 2.6 21:24:39 10° NNW 21:28:02 62° W 21:28:49 45° SSW
Okean 1 4.0 21:26:00 23° SW 21:28:05 48° WNW 21:31:52 10° N
Cosmos 2369 Rocket 3.8 21:24:52 10° NW 21:29:09 23° WSW 21:32:23 14° SW
PSLV R/B 3.8 21:26:54 10° NNE 21:31:00 77° ESE 21:32:26 39° S
Cosmos 2026 Rocket 4.2 21:27:52 28° SSE 21:31:13 61° E 21:37:24 10° NNE
Cosmos 1626 2.9 21:31:50 30° E 21:31:53 30° E 21:34:47 10° NNE
Cosmos 1833 Rocket 4.5 21:35:30 14° ESE 21:36:42 15° E 21:39:46 10° ENE
USA 306 2.5 21:40:28 10° WNW 21:44:20 67° SSW 21:45:08 51° SSE
Cosmos 1553 Rocket 4.2 21:45:52 10° N 21:51:53 59° ENE 21:55:01 29° SE
Meteor 1-18 Rocket 4.4 21:51:29 32° S 21:54:20 71° E 22:00:15 10° NNE
Cosmos 220 Rocket 4.3 21:53:48 41° SSE 21:54:44 49° ESE 21:58:56 10° NNE
SL-8 R/B 3.6 21:52:33 10° WSW 21:57:14 57° SSE 22:01:54 10° E
Cosmos 1328 Rocket 3.5 21:56:13 43° SSE 21:57:31 71° E 22:01:51 10° NNE
USA 234 3.3 21:52:10 10° ESE 21:58:44 82° NNE 22:05:19 10° WNW
Spot 4 3.8 21:58:25 38° S 22:00:12 72° WSW 22:04:59 10° NNW
ALOS 2 2.5 21:58:50 42° SSE 22:00:18 85° ENE 22:04:44 10° NNW
Cosmos 1943 4.2 21:55:15 10° SW 22:00:41 45° NW 22:06:09 10° NNE
Cosmos 1470 Rocket 3.6 21:58:47 10° N 22:03:16 71° ENE 22:04:42 41° SSE
Meteor 2-4 Rocket 3.8 22:00:28 30° SSW 22:03:32 86° WNW 22:09:31 10° NNE
H-2A R/B 3.1 22:02:30 35° SW 22:03:40 45° W 22:07:44 10° NNW
BREEZE-M DEB (TANK) 4.4 22:07:51 29° ESE 22:07:51 29° ESE 22:13:08 10° ENE
Lacrosse 4 Rocket 1.5 22:05:03 10° NNW 22:09:06 67° NE 22:10:34 37° ESE
Cosmos 1151 Rocket 4.1 22:08:37 23° SW 22:10:51 39° WNW 22:14:58 10° N
Cosmos 1666 Rocket 4.0 22:08:54 10° NNW 22:13:06 50° W 22:14:23 37° SW
Cosmos 1092 Rocket 4.1 22:10:25 27° SSW 22:13:57 72° WNW 22:20:18 10° N
Cosmos 1818 4.2 22:13:02 33° SSE 22:14:16 37° ESE 22:19:17 10° NE
Cosmos 1656 3.5 22:11:10 10° NNW 22:16:39 84° WSW 22:19:03 35° SSE
Cosmos 1633 Rocket 3.4 22:12:29 10° NNW 22:16:49 56° W 22:18:08 39° SSW
ARIANE 5 R/B 4.2 22:16:04 20° SW 22:17:34 24° W 22:21:08 10° NW
ISS -1.3 22:15:54 10° W 22:16:32 13° W 22:16:32 13° W
USA 59 Rocket 0.3 22:17:57 10° NW 22:21:47 55° SW 22:22:59 42° S
NOSS 2-1 (E) 3.8 22:18:49 10° NW 22:22:39 54° SW 22:23:50 42° S
Cosmos 1842 3.6 22:22:35 43° ESE 22:23:02 45° E 22:26:36 10° NNE
Cosmos 1992 Rocket 4.2 22:18:49 10° NNW 22:23:58 59° WSW 22:25:48 38° S
Cosmos 1066 Rocket 4.2 22:21:45 35° S 22:24:22 82° E 22:30:16 10° NNE
H-2A R/B 2.6 22:20:28 10° NNE 22:24:47 48° E 22:25:53 39° SE
Cosmos 1697 Rocket 3.2 22:21:56 10° NNW 22:27:31 56° NE 22:31:17 20° SE
Cosmos 1908 3.9 22:25:08 10° N 22:28:32 40° ENE 22:29:18 35° ESE
Cosmos 1933 Rocket 3.6 22:24:21 10° N 22:28:41 68° ENE 22:30:02 42° SE
Cosmos 1766 3.3 22:26:36 10° NNW 22:30:17 59° W 22:30:52 51° SW
Cosmos 614 Rocket 4.1 22:27:44 29° SW 22:30:25 70° WNW 22:35:40 10° NNE
Cosmos 1980 Rocket 3.6 22:27:38 10° NNW 22:32:53 36° NE 22:38:06 10° ESE
Cosmos 1470 2.6 22:30:31 10° N 22:34:15 73° E 22:34:54 56° SE
NOSS 2-1 (D) 4.1 22:30:33 10° WNW 22:34:16 42° SW 22:34:55 39° SSW
Cosmos 1707 3.0 22:34:21 43° ESE 22:34:47 46° E 22:38:19 10° NNE
Meteor 2-12 Rocket 4.4 22:35:06 33° S 22:38:02 89° W 22:44:15 10° N
Cosmos 2266 Rocket 4.3 22:35:15 31° SSE 22:38:05 57° E 22:44:10 10° NNE
KORONAS-FOTON 3.6 22:43:13 60° SSE 22:43:42 71° E 22:47:23 10° NNE
Cosmos 2360 4.2 22:47:49 10° NNW 22:53:33 75° WSW 22:56:07 34° SSE
Helios 1A Rocket 4.0 23:00:20 23° ESE 23:02:11 36° ENE 23:05:45 10° N
NOSS 3-3 (A) 3.8 22:59:40 33° SSW 23:02:22 75° SE 23:08:52 10° NE
Cosmos 2228 Rocket 4.3 23:01:24 25° SE 23:03:01 32° E 23:07:00 10° NNE
Lacrosse 5 rocket 3.1 22:59:25 10° WNW 23:03:18 34° N 23:07:02 10° ENE
USA 267 3.2 22:58:01 10° ENE 23:04:35 87° SSE 23:10:42 12° WSW
Cosmos 1626 3.9 23:04:41 16° W 23:05:32 18° WNW 23:07:52 10° NNW
Cosmos 1269 Rocket 4.2 23:04:35 29° SW 23:07:12 65° WNW 23:12:28 10° NNE
Cosmos 1140 Rocket 3.6 23:05:26 37° S 23:07:23 62° ESE 23:12:33 10° NNE
Cosmos 2251 Rocket 4.3 23:05:57 29° SSE 23:07:51 40° ESE 23:12:46 10° NE
Cosmos 1674 3.1 23:07:50 40° WSW 23:08:24 45° WNW 23:11:47 10° N
Cosmos 2082 Rocket 3.7 23:08:47 19° SE 23:11:10 25° ESE 23:15:43 10° NE
PSLV R/B 4.2 23:07:40 10° N 23:12:10 52° WNW 23:13:59 31° SW
NOSS 3-4 (A) 3.9 23:10:21 10° NW 23:17:05 82° NE 23:24:54 10° SE
NOSS 3-4 (C) 3.9 23:10:24 10° NW 23:17:08 81° NE 23:24:57 10° SE
Cosmos 1300 3.3 23:14:57 10° N 23:18:25 45° ENE 23:19:33 33° SE
Meteor 2-10 Rocket 3.9 23:13:02 10° N 23:18:52 71° ENE 23:22:17 26° SSE
Cosmos 1833 Rocket 2.6 23:17:10 34° SSW 23:19:43 82° ESE 23:25:22 10° NNE
Cosmos 407 Rocket 3.8 23:18:38 33° SSE 23:20:44 55° ESE 23:25:53 10° NNE
Iridium 51 4.5 23:19:47 43° SSE 23:21:05 75° E 23:25:28 10° N
Cosmos 44 Rocket 3.2 23:18:30 10° NW 23:23:30 82° SW 23:26:07 27° SSE
Cosmos 2315 Rocket 4.0 23:17:58 10° NNW 23:24:16 81° W 23:27:37 30° S
ATLAS CENTAUR R/B 4.4 23:10:42 10° WNW 23:24:52 75° SW 23:34:27 10° SE
S3M 4.3 23:19:07 10° NNW 23:25:20 58° W 23:28:27 30° SSW
NOSS 3-3 (C) 3.9 23:26:07 26° SW 23:29:30 83° NW 23:36:09 10° NE
IDEFIX/ARIANE 42P 4.3 23:27:46 10° NE 23:31:55 23° E 23:35:21 13° SE
Cosmos 2285 Rocket 4.0 23:29:14 31° SSW 23:32:31 84° ESE 23:38:54 10° NNE
GP-B 3.4 23:30:06 10° N 23:34:25 55° W 23:35:54 36° SW
Cosmos 1400 Rocket 3.1 23:34:57 39° SSE 23:36:11 60° E 23:40:09 10° NNE
Cosmos 1763 Rocket 3.6 23:32:28 10° NNW 23:37:50 81° ENE 23:41:20 22° SSE
SL-8 R/B 3.6 23:34:43 10° W 23:39:28 68° S 23:44:13 10° ESE
Cosmos 1869 Rocket 4.3 23:37:46 10° NNW 23:41:48 38° W 23:42:58 32° SW
CZ-2D R/B 4.0 23:37:36 10° NE 23:41:48 22° E 23:45:55 10° SE
USA 234 3.6 23:38:50 25° S 23:42:08 42° SW 23:48:17 10° WNW
Cosmos 1733 Rocket 2.9 23:40:48 10° N 23:45:08 90° W 23:46:56 35° S
Nimbus 7 Rocket 4.4 23:40:52 10° NNE 23:46:53 88° ESE 23:50:14 28° SSW
Lacrosse 4 Rocket 3.2 23:44:20 10° WNW 23:46:29 16° W 23:46:29 16° W
Meteor 1-23 Rocket 4.2 23:47:12 31° SSW 23:50:02 84° WNW 23:55:41 10° NNE
Aureole 3 3.0 23:50:45 45° SE 23:51:15 52° E 23:54:09 10° NNE
Okean 3 3.9 23:50:23 30° SSE 23:52:05 53° E 23:56:05 10° NNE
Cosmos 1346 Rocket 2.9 23:50:13 10° N 23:54:06 69° ENE 23:55:55 29° SSE
APEX 4.1 23:57:04 18° NW 23:57:04 18° NW 23:58:41 10° N
